Fort Belvoir, VA

9:28 AM EDT on July 26, 2016 (GMT -0400)
Davison Army Air Field

Weather History for KDAA - February, 2013

Change the Weather History Date:

Sunday, February 24, 2013

  Actual Average Record
Temperature  
Mean Temperature 44 °F -  
Max Temperature 53 °F 49 °F 64 °F (2016)
Min Temperature 33 °F 31 °F 7 °F (2015)
Degree Days  
Heating Degree Days 21    
Moisture  
Dew Point 34 °F    
Average Humidity 72    
Maximum Humidity 93    
Minimum Humidity 34    
Precipitation  
Precipitation 0.00 in - - ()
Sea Level Pressure  
Sea Level Pressure 29.90 in    
Wind  
Wind Speed 7 mph (NW)    
Max Wind Speed 21 mph    
Max Gust Speed 29 mph    
Visibility 10 miles    
Events      
Averages and records for this station are not official NWS values.
T = Trace of Precipitation, MM = Missing Value Source: NWS Daily Summary

Daily Weather History Graph

Daily Weather History Graph

Search for Another Location

Airport or City:

Trip Planner

Search our weather history database for the weather conditions in past years. The results will help you decide how hot, cold, wet, or windy it might be!

Date:

Astronomy

Feb. 24, 2013 Rise Set
Actual Time 6:47 AM EST 5:56 PM EST
Civil Twilight 6:20 AM EST 6:23 PM EST
Nautical Twilight 5:50 AM EST 6:54 PM EST
Astronomical Twilight 5:19 AM EST 7:25 PM EST
Moon 5:05 PM EST (2/24) 5:43 AM EST (2/24)
Length of Visible Light 12h 02m
Length of Day
11h 08m
Waxing Gibbous, 99% of the Moon is Illuminated
Feb 24
Waxing Gibbous
Feb 25
Full
Mar 4
Last Quarter
Mar 11
New
Mar 19
First Quarter

Hourly Weather History & Observations

Time (EST) Temp. Windchill Dew Point Humidity Pressure Visibility Wind Dir Wind Speed Gust Speed Precip Events Conditions
12:49 AM 42.8 °F 40.1 °F 41.0 °F 93% 29.85 in 10.0 mi North 4.6 mph - N/A   Overcast
12:55 AM 43.3 °F 40.7 °F 41.0 °F 91% 29.85 in 10.0 mi NW 4.6 mph - N/A   Overcast
1:55 AM 42.6 °F 38.4 °F 40.3 °F 91% 29.85 in 10.0 mi Variable 6.9 mph - N/A   Overcast
2:11 AM 42.8 °F 38.6 °F 41.0 °F 93% 29.85 in 10.0 mi NW 6.9 mph - N/A   Overcast
2:19 AM 42.8 °F 38.0 °F 41.0 °F 93% 29.85 in 10.0 mi NW 8.1 mph - N/A   Overcast
2:55 AM 41.9 °F 38.2 °F 39.6 °F 91% 29.83 in 10.0 mi NW 5.8 mph - N/A   Overcast
3:03 AM 41.0 °F 35.8 °F 39.2 °F 93% 29.84 in 10.0 mi NNW 8.1 mph - N/A   Overcast
3:29 AM 41.0 °F 38.0 °F 39.2 °F 93% 29.83 in 10.0 mi WNW 4.6 mph - N/A   Overcast
3:54 AM 42.8 °F 40.1 °F 39.2 °F 87% 29.83 in 10.0 mi NW 4.6 mph - N/A   Overcast
3:55 AM 41.9 °F 39.0 °F 39.2 °F 90% 29.83 in 10.0 mi NW 4.6 mph - N/A   Overcast
4:09 AM 41.0 °F 38.0 °F 39.2 °F 93% 29.83 in 10.0 mi NW 4.6 mph - N/A   Overcast
4:27 AM 42.8 °F 41.1 °F 39.2 °F 87% 29.83 in 10.0 mi WNW 3.5 mph - N/A   Overcast
4:37 AM 42.8 °F 41.1 °F 39.2 °F 87% 29.82 in 10.0 mi NW 3.5 mph - N/A   Overcast
4:55 AM 41.7 °F 39.8 °F 39.6 °F 92% 29.83 in 10.0 mi NW 3.5 mph - N/A   Overcast
5:04 AM 42.8 °F 38.0 °F 39.2 °F 87% 29.84 in 10.0 mi WNW 8.1 mph - N/A   Overcast
5:37 AM 42.8 °F 39.3 °F 39.2 °F 87% 29.85 in 10.0 mi NW 5.8 mph - N/A   Overcast
5:46 AM 42.8 °F 39.3 °F 39.2 °F 87% 29.85 in 10.0 mi WNW 5.8 mph - N/A   Overcast
5:55 AM 42.4 °F 37.5 °F 39.7 °F 90% 29.86 in 10.0 mi WNW 8.1 mph - 0.00 in   Overcast
6:49 AM 42.8 °F - 39.2 °F 87% 29.87 in 10.0 mi Calm Calm - N/A   Overcast
6:55 AM 42.4 °F 40.7 °F 39.4 °F 89% 29.87 in 10.0 mi WNW 3.5 mph - N/A   Overcast
7:10 AM 42.8 °F - 39.2 °F 87% 29.88 in 10.0 mi Calm Calm - N/A   Overcast
7:55 AM 43.3 °F - 39.4 °F 86% 29.88 in 10.0 mi Calm Calm - N/A   Scattered Clouds
8:55 AM 46.4 °F 44.3 °F 37.4 °F 71% 29.90 in 10.0 mi NW 4.6 mph - N/A   Clear
9:55 AM 48.2 °F - 34.0 °F 58% 29.91 in 10.0 mi WNW 15.0 mph 24.2 mph N/A   Clear
10:55 AM 49.8 °F - 31.1 °F 49% 29.91 in 10.0 mi WNW 15.0 mph 21.9 mph N/A   Clear
11:55 AM 50.5 °F - 29.3 °F 44% 29.91 in 10.0 mi NW 16.1 mph 21.9 mph N/A   Clear
12:55 PM 52.2 °F - 28.6 °F 40% 29.89 in 10.0 mi NW 12.7 mph 20.7 mph N/A   Clear
1:55 PM 53.1 °F - 28.0 °F 38% 29.88 in 10.0 mi WNW 13.8 mph 23.0 mph N/A   Clear
2:55 PM 53.4 °F - 26.4 °F 35% 29.88 in 10.0 mi NW 9.2 mph 18.4 mph N/A   Clear
3:55 PM 53.2 °F - 25.2 °F 34% 29.89 in 10.0 mi WNW 20.7 mph - N/A   Clear
4:55 PM 50.4 °F - 23.7 °F 35% 29.93 in 10.0 mi NW 10.4 mph 18.4 mph N/A   Clear
5:55 PM 43.0 °F 36.0 °F 24.4 °F 48% 29.99 in 10.0 mi NNW 13.8 mph 27.6 mph N/A   Clear
6:55 PM 40.3 °F 31.0 °F 21.7 °F 48% 30.03 in 10.0 mi NW 19.6 mph 28.8 mph N/A   Clear
7:55 PM 38.1 °F 29.5 °F 22.1 °F 53% 30.07 in 10.0 mi NNW 15.0 mph 26.5 mph N/A   Clear
8:55 PM 36.9 °F 27.8 °F 21.4 °F 54% 30.12 in 10.0 mi NNW 15.0 mph 21.9 mph N/A   Clear
9:55 PM 36.1 °F 27.3 °F 16.9 °F 46% 30.14 in 10.0 mi NW 13.8 mph 23.0 mph N/A   Clear
10:55 PM 35.2 °F 27.1 °F 16.5 °F 47% 30.13 in 10.0 mi NW 11.5 mph - N/A   Clear
11:55 PM 33.4 °F 24.3 °F 17.8 °F 53% 30.14 in 10.0 mi WNW 12.7 mph - N/A   Clear